GFSGBSN_250_rhum_000.txt.gz
RH
6 7 7 7 8 9 10 12 13 16 18 15 15 17 19 27 37 44 77 88 89 89 84 77 82 83 88 100 100 100 99 81 79 78 92 81 67 43 45 44 45 42 38 35 44 40 28
7 7 8 7 7 8 9 10 11 14 15 15 14 18 21 29 40 54 88 96 86 76 67 69 72 79 94 100 100 100 100 89 77 77 100 100 88 67 54 45 43 45 50 51 39 45 42
10 10 8 7 8 10 10 11 11 11 14 15 14 16 28 43 66 80 93 91 79 70 67 73 83 89 100 100 100 100 100 100 83 77 100 100 100 79 62 64 59 48 40 47 53 48 40
9 10 10 10 10 13 17 15 17 17 17 18 16 19 36 56 84 82 86 74 50 41 54 72 91 100 100 100 100 100 100 100 100 86 100 100 100 100 87 78 76 50 46 44 47 45 40
9 10 10 12 20 27 24 26 24 27 28 25 24 23 40 57 89 98 83 71 27 14 16 40 86 100 100 100 100 100 100 100 100 99 92 97 97 99 100 99 87 75 57 54 44 42 40
10 11 10 10 19 26 37 32 32 38 41 49 38 32 44 68 88 98 86 74 26 14 25 65 100 100 100 100 100 100 100 100 100 100 100 100 94 100 100 98 84 86 60 52 50 52 43
11 12 12 21 31 38 35 40 47 36 50 52 66 53 46 77 90 100 98 79 33 17 55 78 100 100 100 100 100 100 100 100 100 100 100 100 100 100 100 100 82 75 75 58 64 55 55
10 11 13 26 36 43 52 58 38 45 40 56 65 82 67 63 85 100 100 100 54 30 57 82 100 100 100 100 100 100 100 100 100 100 100 100 100 100 99 98 85 71 61 50 54 54 52
9 10 11 16 29 34 36 32 40 43 38 38 52 74 86 78 75 100 100 99 81 46 54 85 100 100 100 100 100 100 100 100 100 100 92 71 71 84 70 56 54 68 75 79 65 56 51
8 8 9 14 19 18 13 10 10 20 31 33 37 49 84 91 83 80 99 100 95 84 51 62 91 91 87 88 82 80 72 70 80 82 81 83 97 64 52 50 57 66 86 81 70 63 56
6 7 7 11 11 7 5 5 5 6 8 18 28 38 51 81 79 100 97 100 100 97 76 68 60 82 91 95 94 98 89 81 72 69 61 63 72 69 54 67 59 54 59 60 75 67 56
6 7 6 9 6 4 4 4 4 4 5 7 11 27 38 49 78 97 90 79 100 95 88 95 91 88 91 87 85 87 91 91 90 86 87 89 70 60 62 58 46 43 48 47 48 46 29
6 6 6 7 4 3 2 2 2 2 3 4 7 13 29 41 56 97 100 91 84 90 100 100 100 100 99 97 99 100 100 99 97 100 99 91 85 64 54 50 40 32 33 27 23 22 13
6 6 5 6 3 3 2 2 2 2 2 4 6 7 16 39 51 82 95 79 85 100 100 100 100 100 100 100 100 100 100 100 87 86 84 66 43 35 28 21 19 16 15 13 14 13 13
7 6 6 5 4 2 2 2 2 2 3 3 4 7 10 32 44 81 80 89 100 100 100 100 100 100 100 100 100 100 100 100 96 77 56 41 27 23 20 17 14 9 14 21 14 13 12
7 6 7 4 4 2 2 2 2 2 3 3 4 6 8 33 46 58 72 92 99 100 100 100 100 100 100 100 100 100 90 95 69 56 44 37 24 7 7 6 4 4 7 10 11 13 13
7 6 8 5 3 2 2 2 2 3 3 4 4 6 8 19 42 53 71 100 100 100 100 100 100 100 100 100 100 100 97 69 66 53 61 46 36 20 6 4 3 3 3 4 6 7 9
6 5 8 5 3 2 2 2 2 3 3 3 4 7 10 18 32 42 78 99 94 92 96 100 100 100 100 100 100 86 72 70 99 100 100 99 69 35 22 7 5 4 3 4 5 6 4
7 5 8 5 3 2 2 3 2 3 3 4 5 8 9 15 28 34 64 95 91 100 100 100 100 100 100 100 87 70 95 100 100 100 100 97 58 34 26 18 8 4 4 4 6 8 10
7 5 8 5 3 2 2 3 3 4 4 5 7 9 10 11 15 23 56 97 97 100 100 100 100 100 100 100 72 73 100 100 100 100 98 89 61 46 30 33 22 16 23 16 11 12 11
8 5 8 5 3 3 3 4 4 4 4 5 8 13 15 13 14 21 46 72 86 97 100 100 100 100 100 84 67 100 98 100 100 100 100 79 99 95 81 91 91 76 75 61 32 21 16
9 5 7 5 3 3 3 4 4 5 5 6 8 13 17 17 21 32 45 66 83 95 100 100 100 100 100 70 84 100 100 100 100 94 92 100 93 100 100 100 100 94 77 84 57 40 41
9 7 7 5 3 3 3 4 5 7 6 7 9 10 12 13 18 26 39 55 76 97 100 100 100 100 84 63 97 100 100 100 89 66 82 100 70 100 100 100 100 100 98 99 94 95 95
10 7 10 6 4 3 3 5 6 8 9 9 9 9 13 20 18 18 24 36 61 78 97 100 100 88 71 75 84 89 100 86 92 80 83 100 91 96 86 100 100 100 100 100 100 100 100
11 8 14 6 4 4 4 5 6 10 11 11 10 12 16 16 15 21 28 32 31 38 59 97 78 86 74 81 92 96 100 86 81 70 99 100 84 99 100 98 100 94 97 90 100 100 100
11 10 16 8 4 4 5 5 6 9 11 11 14 16 15 19 24 25 34 42 38 57 85 62 87 85 84 96 93 99 91 88 90 74 100 100 100 100 100 99 100 100 100 100 86 100 86
11 10 16 10 6 4 5 5 6 9 12 14 17 21 25 27 30 32 43 50 49 58 59 82 70 92 88 100 85 94 98 100 99 84 81 84 100 100 100 100 100 100 100 100 100 100 97
11 10 16 11 6 4 5 5 6 8 12 12 18 23 24 28 30 39 39 52 60 68 78 82 74 92 100 100 90 84 100 100 100 88 88 82 80 96 94 100 100 100 100 100 100 100 99
10 10 15 10 6 4 5 5 6 7 11 14 19 24 29 27 31 37 47 61 68 69 87 99 100 99 95 90 90 63 79 81 100 94 100 95 83 91 90 98 94 96 100 100 100 100 99

GFSGBSN_250_rhum_003.txt.gz
RH
6 6 7 8 8 8 9 10 12 14 16 18 20 31 42 45 50 36 30 24 27 25 42 75 88 81 80 78 81 100 100 100 100 100 99 80 64 67 60 60 73 38 40 44 45 43 34
7 8 9 9 8 8 8 12 13 14 16 18 20 23 34 30 35 30 30 24 26 36 40 59 96 97 98 89 67 72 100 100 100 100 100 96 71 69 69 73 84 92 50 44 45 51 45
7 8 9 9 9 8 9 14 19 23 22 18 16 16 17 24 24 24 28 24 28 37 49 63 100 100 100 94 84 76 71 77 100 100 100 100 100 72 65 72 99 100 84 55 43 42 45
8 9 9 10 10 10 14 16 22 27 31 32 26 18 16 17 18 20 24 24 30 46 52 76 100 100 100 100 93 92 89 90 88 97 100 100 100 98 77 62 84 100 100 67 57 42 39
8 9 10 10 9 13 24 30 34 33 32 37 45 35 26 20 18 18 21 24 32 52 69 96 100 100 100 100 100 100 98 94 99 99 100 100 100 98 90 64 60 100 100 100 79 77 57
8 10 12 11 10 13 17 23 40 50 43 42 44 52 46 36 25 20 19 24 38 73 100 100 100 100 100 99 95 91 99 100 100 100 100 100 100 100 100 98 81 99 100 100 98 97 82
8 12 14 14 13 19 31 42 40 33 44 47 44 52 55 53 46 31 20 39 59 90 100 93 92 81 76 86 90 100 100 100 100 100 100 100 100 100 100 98 89 84 71 95 100 96 93
7 9 12 12 11 16 26 26 19 17 20 28 36 44 52 52 53 38 30 54 86 96 93 86 94 52 34 47 79 97 98 100 100 100 100 100 100 100 100 98 94 74 59 85 100 100 86
6 7 10 10 9 14 16 10 8 7 6 9 13 30 46 48 50 48 51 78 84 96 86 91 65 24 18 21 48 86 92 100 100 100 100 100 100 100 100 100 100 100 100 86 73 79 74
6 6 9 8 8 13 8 5 5 4 4 5 7 8 33 47 50 58 53 86 92 85 93 84 48 24 20 25 45 78 100 100 100 100 100 100 100 100 100 97 100 94 79 64 64 64 69
5 6 8 7 6 9 5 4 3 3 3 3 4 7 13 44 48 49 73 94 87 96 83 79 51 45 41 46 91 83 92 100 95 99 100 100 98 78 76 74 60 52 56 50 45 41 38
5 6 7 6 6 5 4 3 2 2 2 2 3 5 7 30 46 52 80 92 78 68 90 82 68 58 58 68 100 100 93 86 91 94 80 69 65 77 88 71 53 48 42 35 34 32 24
5 5 7 5 6 4 3 2 2 2 2 2 2 3 7 12 42 51 75 75 52 71 100 100 96 88 79 87 100 99 90 86 87 86 91 99 98 87 76 58 52 45 37 31 32 34 31
5 5 7 5 6 4 3 2 2 2 2 2 2 3 6 10 34 47 69 57 49 95 98 100 100 96 92 93 98 97 100 100 100 100 100 100 94 83 70 56 46 39 25 23 20 17 14
5 5 7 6 7 4 2 2 2 2 2 2 2 3 6 9 23 38 58 49 78 100 100 100 100 100 89 96 100 100 100 100 100 100 92 97 87 68 50 42 33 21 12 8 6 6 7
5 5 8 6 7 4 2 2 2 2 2 2 2 3 5 8 16 33 54 58 93 100 100 100 100 100 100 100 100 100 100 100 100 100 100 90 64 48 35 26 16 6 5 4 3 3 5
6 5 7 7 8 4 3 2 3 2 3 3 3 3 6 10 16 30 51 71 100 100 99 100 100 100 100 100 100 100 100 100 100 100 89 64 59 57 81 67 42 22 7 2 2 2 3
6 4 6 8 9 4 3 2 3 3 3 3 3 4 7 9 12 24 56 74 100 100 100 100 100 100 100 100 100 100 100 100 99 81 78 77 87 76 57 63 43 19 8 5 2 2 2
6 5 5 8 8 5 3 2 3 3 3 3 4 5 8 10 10 30 68 71 100 98 100 100 98 100 100 100 100 100 100 99 78 85 93 90 74 65 66 58 22 18 14 10 6 4 4
7 5 5 7 8 5 3 3 4 4 4 3 4 6 7 9 12 32 66 65 96 99 100 100 99 100 100 100 100 100 100 88 89 80 75 86 70 58 44 62 54 46 32 18 16 10 7
8 6 5 7 9 7 3 3 4 4 5 5 4 6 9 10 13 24 41 61 92 100 100 100 100 100 100 100 100 100 99 88 85 71 75 78 70 79 68 85 85 94 87 77 57 32 15
9 7 6 8 9 8 4 3 4 4 5 6 6 7 9 9 11 15 32 57 76 100 100 100 100 100 100 100 100 100 97 84 87 80 89 79 76 100 91 100 100 95 98 82 74 58 34
10 8 6 7 9 10 5 4 4 5 5 8 7 7 9 10 13 21 27 52 70 100 100 100 100 100 100 100 100 92 92 87 80 65 100 66 92 100 100 86 100 100 100 94 98 77 65
10 10 9 8 8 12 6 4 4 6 6 8 9 9 10 10 12 23 33 49 74 87 96 100 100 100 100 100 91 96 88 79 60 94 78 60 90 100 100 93 88 100 100 100 100 100 93
10 13 10 9 9 16 6 4 5 6 8 8 9 9 9 10 12 16 28 47 76 88 100 100 100 100 100 100 84 92 78 79 78 87 72 80 82 100 100 86 97 100 87 100 100 100 100
11 13 12 10 8 17 7 5 6 6 8 9 12 13 11 12 12 16 21 37 63 83 99 100 100 100 100 91 74 64 65 60 74 84 96 84 100 87 98 100 100 80 100 100 100 98 100
11 14 13 11 9 19 8 5 6 6 8 9 12 13 15 15 15 15 18 28 43 69 72 98 100 100 96 76 68 64 66 61 83 94 100 89 90 99 100 100 100 100 100 100 100 100 100
11 15 13 12 9 17 10 6 6 6 8 11 13 15 16 17 18 17 20 22 33 48 59 96 99 98 90 80 65 65 60 66 78 100 99 100 100 100 86 79 81 100 100 100 100 100 100
11 16 13 13 9 19 13 7 7 7 7 10 12 15 20 21 23 23 24 29 33 40 61 88 90 85 71 59 63 70 74 74 81 100 100 100 100 100 100 96 98 91 95 100 100 100 100

GFSGBSN_250_rhum_006.txt.gz
RH
10 9 7 8 10 10 9 8 8 8 8 11 13 15 18 22 31 52 65 75 84 91 98 87 72 65 71 79 85 82 78 99 100 100 100 100 100 98 82 58 61 70 75 57 58 58 43
9 10 8 8 10 10 10 9 8 9 10 12 15 18 22 29 32 46 51 67 75 95 100 100 79 57 70 90 96 85 81 85 94 100 100 100 100 97 95 84 65 62 72 67 62 80 78
11 10 8 8 10 11 11 10 11 13 14 16 18 25 23 29 36 48 51 61 64 67 73 67 59 40 32 46 83 96 86 88 83 96 100 100 100 100 100 100 82 73 58 62 66 71 99
10 10 8 8 9 11 12 13 17 19 21 23 27 31 29 32 30 28 40 56 55 68 67 62 60 43 30 38 60 100 94 89 92 91 99 100 100 100 100 100 100 83 78 53 58 65 87
9 10 9 8 9 11 11 11 16 28 31 29 29 40 39 42 40 36 27 25 31 42 53 62 61 43 43 44 54 98 100 96 94 93 82 86 100 100 100 100 100 100 93 90 87 61 82
9 9 9 8 11 13 12 13 19 22 24 26 29 30 42 43 46 42 40 21 18 27 40 62 57 36 48 58 60 96 100 100 100 100 97 78 74 89 98 100 100 100 91 72 81 95 56
9 8 8 7 8 12 11 15 20 19 16 12 9 13 28 36 46 57 40 24 21 27 55 56 43 36 57 66 74 90 100 100 100 100 100 86 85 93 89 90 91 94 98 93 86 92 86
9 8 8 7 7 8 7 10 10 6 5 5 5 6 9 25 33 40 38 31 47 25 27 33 37 52 72 82 98 100 100 100 100 100 100 100 100 100 100 100 97 99 100 100 94 96 92
9 8 7 7 7 6 7 7 4 4 3 3 3 4 6 9 27 41 47 72 60 32 30 50 41 62 83 98 100 100 100 100 100 100 100 100 100 100 100 100 100 99 93 90 84 77 81
8 8 6 6 6 5 7 4 3 2 2 2 2 2 4 6 15 25 48 83 69 43 31 61 74 96 100 100 100 100 100 100 100 100 100 100 95 99 100 100 92 88 93 87 93 97 89
8 7 6 6 6 5 6 3 2 2 2 2 2 2 3 5 10 26 54 75 71 53 33 60 82 100 100 96 99 99 98 92 95 99 97 92 87 89 95 100 99 93 99 97 98 82 72
8 7 6 7 7 6 5 2 2 2 2 2 2 2 2 5 9 25 50 65 68 51 34 54 92 99 100 96 82 61 39 34 47 61 85 89 92 94 85 90 93 84 78 76 65 56 40
8 7 6 7 7 5 4 2 2 2 2 2 2 2 2 5 9 25 49 52 62 37 51 81 100 100 99 71 48 34 31 38 37 42 52 52 65 78 86 78 70 63 57 56 52 48 42
7 6 5 7 7 5 4 2 2 2 2 2 2 2 3 4 9 21 37 44 41 48 66 94 100 97 80 51 45 41 47 54 60 52 70 87 99 92 92 87 76 82 73 58 44 44 38
7 6 5 6 7 6 4 2 2 2 3 3 2 2 3 5 9 20 33 36 48 71 87 100 96 93 71 51 51 51 72 68 72 92 94 100 100 100 99 74 60 53 53 46 35 27 18
7 6 4 6 8 6 4 2 2 3 3 3 3 3 3 4 7 18 34 43 61 90 91 100 88 78 62 53 63 77 91 97 94 96 100 100 100 95 76 59 57 49 56 44 27 9 6
8 6 5 5 7 6 4 2 2 3 3 3 2 3 3 5 8 20 41 52 76 90 86 100 95 73 68 77 94 100 100 100 100 100 100 94 84 71 70 66 61 72 77 66 33 12 5
8 6 5 5 6 6 6 3 2 3 3 3 3 3 4 6 9 20 43 57 84 88 85 100 99 83 88 100 94 96 100 100 100 96 92 69 63 63 75 75 89 79 48 31 24 14 5
8 6 6 5 6 5 6 3 2 3 4 3 3 3 5 8 11 20 42 56 99 99 95 98 97 100 100 100 97 88 99 99 100 88 69 70 73 73 81 76 92 91 82 39 22 14 7
8 7 6 6 7 6 8 4 2 3 4 4 4 4 6 9 14 29 58 80 100 100 94 88 99 100 100 100 97 98 100 100 93 74 76 81 76 74 68 98 100 92 83 71 41 21 14
8 7 7 6 7 7 8 4 3 4 5 5 6 5 7 10 15 40 59 99 100 95 96 96 100 100 100 100 96 100 100 98 82 88 83 89 85 85 67 83 100 100 98 74 65 51 24
9 8 8 7 6 8 8 6 3 4 6 7 8 7 7 11 20 33 56 97 99 97 94 100 100 100 100 100 100 100 100 76 90 84 89 92 90 81 95 76 100 100 100 100 63 66 50
10 9 10 8 8 8 7 8 4 4 6 7 8 9 8 10 17 31 56 88 100 100 100 100 100 100 100 100 96 100 98 92 94 80 98 98 89 90 78 92 94 100 100 100 100 63 62
11 10 12 10 8 10 8 12 5 4 6 9 9 11 10 10 15 31 50 67 97 97 99 100 100 100 100 90 100 100 94 96 85 82 80 93 85 66 90 92 80 87 100 100 100 94 62
12 12 13 12 10 10 9 15 8 5 5 8 9 11 15 10 14 20 40 62 88 96 100 100 100 100 100 94 100 100 100 82 83 86 92 71 93 71 79 69 85 98 100 96 100 100 98
12 14 13 16 12 11 10 15 15 6 6 6 10 11 15 14 11 15 28 47 65 90 100 100 100 100 100 97 100 100 88 88 84 78 72 66 90 72 78 64 73 100 100 100 100 100 100
12 16 12 18 15 13 12 12 21 10 7 7 10 12 13 15 14 14 20 39 58 72 96 100 100 100 100 98 100 92 87 84 84 77 67 71 82 79 70 93 92 100 98 100 100 100 100
12 17 14 18 16 14 13 14 21 13 8 8 8 12 11 14 17 15 20 28 45 64 85 100 100 100 100 100 99 81 83 78 84 76 64 76 96 94 85 97 100 100 100 98 100 100 100
12 17 14 18 17 15 14 13 26 15 9 8 8 13 14 18 22 20 20 27 38 53 75 99 100 100 100 94 91 79 83 77 84 87 71 85 99 97 100 100 100 100 100 100 100 98 100

GFSGBSN_250_rhum_009.txt.gz
RH
10 9 8 9 8 8 8 9 10 9 7 8 8 9 9 11 15 16 18 22 68 71 96 100 100 100 97 96 98 94 73 73 74 90 100 100 100 100 100 100 100 77 74 69 61 60 56
11 9 8 9 9 8 8 9 11 10 9 9 9 11 11 11 12 15 18 22 29 48 71 100 100 100 100 98 100 89 79 78 72 72 91 100 100 100 100 100 100 91 77 70 60 66 63
10 11 9 9 8 8 9 10 11 10 13 13 12 13 15 14 16 14 16 21 31 41 61 88 100 100 98 100 98 96 92 93 88 81 78 91 100 100 100 100 100 87 85 80 79 58 64
10 12 10 10 9 8 8 11 12 12 13 17 20 20 20 21 20 22 20 19 30 46 60 78 92 100 100 100 100 100 90 79 89 99 90 85 96 100 100 100 100 97 93 94 94 78 62
9 12 10 8 9 8 8 11 11 14 19 21 20 23 26 26 27 26 25 24 24 41 60 86 82 96 100 100 96 100 95 80 82 80 100 100 90 94 100 100 100 99 100 100 100 98 85
10 12 10 8 8 8 7 8 8 10 12 14 13 11 14 26 36 32 33 35 30 31 39 61 83 96 100 100 100 100 81 64 67 80 86 97 98 96 93 100 100 100 100 100 100 100 99
11 11 10 7 8 7 6 6 6 7 6 4 4 5 5 8 24 42 41 44 34 25 24 46 78 67 95 92 94 79 74 72 57 45 67 100 100 100 95 100 100 100 100 100 100 100 99
11 10 10 7 7 6 5 5 5 6 3 2 2 2 3 4 8 27 41 43 41 59 69 42 43 53 87 81 85 88 86 67 51 42 53 100 100 100 100 99 96 98 98 99 100 100 100
12 10 10 7 7 6 5 5 5 4 2 2 2 2 2 3 6 11 35 50 55 86 66 57 27 28 51 59 69 64 65 53 54 57 78 97 100 100 100 99 94 90 82 79 74 84 93
13 11 9 7 7 6 5 4 5 3 2 2 2 2 2 3 4 8 20 44 64 84 74 64 42 31 36 52 67 52 54 57 74 72 87 100 100 100 100 100 100 97 96 86 72 71 74
13 10 8 7 7 6 4 4 5 2 2 2 3 2 2 2 4 6 10 34 62 80 73 55 41 35 30 40 62 58 54 76 90 92 91 98 100 100 100 100 100 100 100 95 98 93 86
13 10 8 7 7 6 4 5 4 2 2 2 2 2 2 2 3 5 11 31 62 64 56 44 42 34 47 59 64 74 88 99 100 100 98 100 100 100 100 100 100 100 100 100 91 86 77
13 9 7 7 6 5 4 5 3 2 2 2 2 2 2 2 3 5 10 27 53 55 40 57 50 51 54 79 82 94 100 100 99 100 100 100 100 100 100 100 100 100 92 91 94 98 88
13 9 7 6 6 5 5 4 2 2 2 2 2 2 2 3 3 4 9 18 35 36 51 69 64 58 74 90 93 98 99 98 100 97 94 96 100 99 100 98 94 100 100 84 50 43 41
12 9 6 6 6 5 5 5 2 2 2 2 2 2 2 3 4 6 9 20 28 52 84 73 55 70 96 100 100 96 97 97 91 86 65 40 43 47 59 61 52 47 56 84 100 85 57
11 9 6 6 6 5 5 4 2 2 2 2 2 2 2 3 4 7 9 18 43 69 92 75 88 97 100 100 95 96 86 59 36 33 50 72 70 88 64 58 80 100 100 95 82 60 47
10 9 7 6 6 5 6 6 2 2 3 3 3 2 3 4 5 9 14 39 70 79 81 78 87 99 99 99 84 57 46 48 55 66 76 79 74 83 99 100 100 90 71 63 75 64 42
9 8 8 7 6 7 6 8 3 3 3 3 4 3 3 5 7 11 24 52 64 88 87 92 100 100 100 90 64 50 55 69 77 91 87 90 100 100 92 82 65 66 75 77 80 71 38
9 9 9 7 6 8 7 10 3 3 4 4 4 4 4 6 7 18 37 56 78 92 85 90 95 99 100 84 65 61 60 75 86 90 99 100 94 83 73 69 78 85 93 79 73 85 73
10 10 10 8 6 8 10 11 4 3 4 5 6 6 6 7 10 19 39 57 70 81 92 90 92 100 100 89 71 60 72 79 91 100 99 90 77 81 70 68 91 95 100 96 80 96 88
9 10 10 8 6 7 10 10 8 4 5 6 8 9 7 10 13 28 57 64 63 83 90 91 99 100 100 89 74 71 73 80 100 99 86 77 87 94 85 77 76 99 80 94 72 83 97
10 11 11 9 6 6 10 11 14 5 6 6 10 11 12 9 15 27 52 71 84 91 94 95 98 100 96 76 77 72 81 100 100 90 75 90 96 85 98 89 84 85 82 100 97 100 86
11 11 12 10 8 7 9 11 15 6 6 8 11 13 12 13 16 35 61 84 87 96 100 99 97 100 97 91 89 90 97 100 98 73 86 93 83 84 100 91 78 81 100 100 100 100 100
12 12 12 11 9 11 9 10 13 14 7 8 11 14 16 17 19 40 69 93 83 80 95 99 100 97 100 95 94 98 96 98 80 79 86 96 89 90 78 92 70 100 100 100 100 100 100
13 13 13 12 11 14 12 11 12 20 9 9 11 14 16 17 20 35 70 92 90 93 98 98 97 98 100 95 94 100 85 86 79 97 94 96 88 95 77 66 74 90 99 96 87 92 96
14 13 14 14 13 13 15 14 14 13 20 9 10 12 18 18 20 30 54 82 72 92 100 100 97 94 98 85 90 97 100 100 95 98 98 99 91 82 71 77 80 70 100 92 100 99 74
16 13 13 14 13 17 20 17 16 14 22 11 9 10 15 18 19 24 41 74 72 80 89 100 100 100 92 81 81 95 100 99 100 98 95 93 96 81 80 83 77 78 99 100 100 100 100
15 13 12 14 14 16 23 21 18 18 17 21 9 9 10 17 19 18 36 57 66 80 90 96 100 95 90 78 92 97 100 95 100 99 100 100 87 72 74 79 79 83 90 99 100 99 100
14 13 12 13 13 14 19 22 20 19 19 27 11 9 9 14 17 18 19 37 62 81 90 98 100 97 88 83 95 100 99 98 100 98 99 99 93 86 72 99 80 89 99 91 100 95 100

GFSGBSN_250_rhum_015.txt.gz
RH
17 15 12 13 11 11 11 11 9 8 8 7 7 7 7 7 7 7 8 8 10 11 10 9 13 29 56 60 80 81 77 61 57 61 80 100 100 100 100 100 100 100 99 100 100 100 98
15 16 13 14 12 10 12 10 8 8 7 7 8 7 6 7 7 7 7 8 8 10 11 10 10 21 28 61 77 84 95 88 64 62 68 74 100 100 100 100 100 100 100 100 100 100 100
16 16 15 14 13 10 11 8 6 6 5 6 6 8 7 5 7 8 8 8 9 9 11 12 9 10 14 60 100 99 95 100 94 76 59 66 73 99 100 100 100 100 100 100 100 100 100
14 16 15 14 14 10 9 8 6 6 5 4 5 5 4 4 3 6 8 9 11 10 10 11 12 8 21 28 100 100 92 100 96 98 79 55 58 59 61 86 100 100 100 100 100 100 100
13 16 15 14 14 10 10 8 6 5 4 4 4 3 2 2 2 3 6 9 12 14 11 10 12 14 8 26 100 100 100 100 100 82 79 81 59 56 58 63 77 100 100 100 100 100 100
14 15 15 13 13 9 9 7 6 4 4 4 4 2 2 2 2 2 3 8 11 16 14 11 10 15 15 30 76 100 90 98 100 94 82 88 90 78 70 67 68 74 93 100 100 100 100
14 14 16 13 13 9 8 8 6 4 3 3 2 2 2 2 3 3 3 5 9 12 17 14 16 20 16 16 20 100 98 88 98 93 100 88 96 100 85 87 73 67 78 93 100 100 100
15 14 16 13 13 9 8 7 5 4 3 3 2 2 2 2 2 3 4 4 6 8 20 19 19 15 24 15 15 43 81 100 100 100 100 100 100 89 90 91 96 92 78 75 70 84 99
16 14 16 13 14 8 8 7 5 4 3 3 2 2 2 2 2 3 4 4 5 7 20 28 27 25 25 24 19 46 66 92 100 100 100 100 99 93 99 98 89 83 81 73 69 69 76
16 15 15 14 13 9 8 6 5 4 3 3 2 2 2 2 2 3 3 4 4 7 21 30 29 32 25 25 24 28 47 70 98 100 100 100 100 100 100 99 81 74 75 78 80 72 62
17 16 16 14 12 9 9 7 5 4 4 3 2 2 2 2 2 2 3 4 4 6 20 33 35 40 38 36 35 29 43 68 71 88 97 100 100 100 95 100 100 88 83 82 75 67 61
17 17 16 15 12 10 9 7 5 4 4 2 2 2 2 2 2 2 2 3 3 5 17 29 35 40 52 52 52 56 48 44 55 74 89 100 100 100 100 100 100 100 90 74 78 64 56
18 18 16 16 12 11 9 8 6 4 4 3 3 2 2 2 2 2 2 4 4 5 25 46 59 63 61 56 57 80 73 67 67 78 90 98 97 100 100 100 100 95 86 75 66 60 46
18 19 17 15 12 11 10 8 6 4 4 3 3 2 2 2 2 2 3 4 5 23 39 57 65 54 64 73 81 67 68 79 84 95 98 95 97 95 94 91 80 69 73 66 50 54 70
18 19 16 16 12 12 10 9 6 4 5 3 3 3 2 2 2 3 3 5 10 25 64 72 65 79 86 95 85 81 77 63 81 80 85 93 88 84 85 80 72 71 74 81 85 96 96
19 18 16 15 12 11 10 9 7 4 5 4 3 3 3 3 3 3 4 8 13 39 44 51 84 96 98 99 90 79 59 62 73 74 90 88 78 80 79 78 80 93 98 96 96 100 96
19 17 16 14 12 11 10 9 8 5 5 5 3 4 4 4 4 4 6 9 25 49 57 60 80 79 75 81 77 67 58 59 71 78 76 75 76 74 78 95 100 99 100 98 100 99 96
18 17 16 14 12 11 10 8 9 6 6 6 4 5 5 6 6 6 6 12 23 50 69 72 71 76 83 80 55 55 69 84 84 86 94 100 91 83 100 100 100 100 96 94 86 84 72
17 18 16 13 12 11 10 8 9 8 6 7 4 6 6 9 7 8 9 16 30 53 63 73 75 93 87 88 98 100 96 89 100 99 100 100 100 100 100 100 97 89 87 67 69 68 75
16 16 15 13 12 11 10 8 9 10 7 8 4 6 8 10 11 10 12 22 49 53 64 72 92 89 85 94 95 90 100 97 98 98 100 98 95 94 94 99 89 76 79 66 70 67 98
16 16 14 13 13 11 10 8 9 9 9 8 7 7 10 15 16 13 19 26 43 55 73 87 88 86 94 98 86 89 100 100 100 95 86 73 82 93 100 96 83 73 70 62 83 99 78
16 14 13 13 12 11 11 9 10 10 11 12 12 8 12 23 29 35 46 54 61 80 87 94 91 91 99 97 88 86 78 61 66 68 73 76 98 100 94 79 76 73 62 100 100 67 66
16 14 13 13 12 12 11 11 10 12 12 16 18 13 13 29 43 48 56 73 88 98 96 96 100 94 91 84 74 63 62 67 75 69 69 89 88 77 71 67 79 82 84 100 78 77 71
15 15 13 14 12 12 11 12 11 11 14 14 17 23 15 19 50 60 75 85 96 97 95 91 90 90 88 74 77 75 75 70 64 68 76 77 78 66 62 75 72 86 92 89 84 79 69
14 14 14 14 12 12 12 12 12 12 13 12 17 21 25 17 22 47 85 100 91 100 89 94 87 84 82 82 84 82 81 76 69 74 73 82 70 69 74 90 98 94 95 100 100 79 78
13 12 14 14 12 12 12 12 13 12 14 13 11 17 27 24 20 26 50 100 97 99 100 99 90 89 91 94 97 94 87 75 68 60 75 84 77 87 98 90 91 100 100 100 88 76 80
12 12 13 13 12 12 12 14 13 12 14 16 13 12 15 26 28 22 23 66 77 84 100 100 97 87 89 98 96 89 85 73 65 62 68 68 78 95 87 94 92 88 94 98 76 71 70
11 12 13 13 12 12 13 15 13 13 14 17 17 13 12 13 26 29 18 26 73 74 72 92 100 91 89 91 99 97 90 78 70 64 69 76 87 89 91 90 95 92 94 80 77 69 68
11 12 13 13 13 12 12 12 12 12 15 18 18 17 16 12 12 21 28 15 23 79 91 78 93 95 90 82 88 86 82 87 73 68 64 73 87 92 97 100 95 91 96 90 82 69 67

GFSGBSN_250_rhum_021.txt.gz
RH
21 13 12 11 12 9 8 8 8 8 8 7 6 6 5 4 3 2 3 3 4 7 8 8 10 11 9 9 21 49 66 86 61 51 56 97 100 100 100 100 100 100 100 100 100 100 100
16 14 11 11 13 9 8 7 8 8 7 6 6 5 4 3 2 3 3 4 2 6 8 8 10 11 12 10 15 41 63 83 92 66 61 64 100 100 100 100 100 100 100 100 100 100 100
16 12 10 11 12 9 9 7 7 8 7 5 5 4 4 3 3 3 3 4 3 4 8 8 10 11 12 11 16 34 62 100 83 95 68 62 58 100 100 100 100 100 100 100 100 100 100
15 11 9 11 12 10 9 6 7 7 7 6 5 4 3 3 2 2 2 3 3 3 7 8 9 11 15 13 15 47 82 95 87 92 92 70 56 88 100 100 100 100 100 100 100 100 100
17 12 10 11 13 10 8 7 7 7 6 6 5 4 3 3 2 2 2 2 3 3 4 9 10 10 14 16 16 39 70 88 87 76 99 88 65 73 98 100 100 100 100 100 100 100 100
15 11 11 12 13 10 9 7 7 6 6 5 4 4 3 3 2 2 2 2 3 3 3 8 10 11 14 17 14 17 61 90 100 68 94 98 86 64 85 100 100 100 100 100 100 100 100
12 13 11 13 13 10 10 7 6 6 6 5 4 3 2 3 2 2 2 2 3 3 3 7 15 17 13 14 15 15 36 82 99 89 85 96 91 95 92 92 99 100 100 100 100 100 100
14 12 13 15 13 10 10 8 6 6 5 5 4 3 2 2 2 2 2 2 3 4 3 6 17 17 14 14 18 19 27 76 96 80 79 75 95 100 92 74 73 100 100 100 100 100 100
15 15 15 15 12 11 9 8 6 6 5 5 4 3 2 3 2 2 2 2 3 4 4 8 17 17 16 16 19 21 24 51 100 100 90 90 89 99 88 95 86 78 69 67 84 98 100
17 16 16 15 11 10 8 7 6 6 6 5 4 3 3 3 2 2 2 2 4 4 5 9 18 20 18 17 19 21 22 22 74 100 100 100 99 99 83 100 94 93 91 78 68 62 97
16 16 17 14 12 9 8 7 6 6 6 5 4 3 3 3 2 2 2 3 4 5 5 12 21 23 22 22 24 22 23 19 32 78 100 100 97 93 96 94 96 98 100 94 85 64 62
16 18 17 13 11 10 8 7 6 5 6 5 4 3 3 3 2 2 2 3 4 5 6 15 23 29 28 26 24 21 26 21 17 56 95 100 100 96 82 88 98 92 96 96 97 94 91
17 17 17 13 11 10 8 7 6 5 6 5 4 3 4 3 3 2 2 3 3 5 12 22 36 36 34 39 37 28 27 25 20 17 35 100 100 100 100 100 100 99 91 99 89 90 96
18 17 17 13 10 10 9 8 6 5 6 5 4 4 4 3 3 3 2 3 5 8 19 28 40 46 44 50 42 33 38 30 21 19 20 57 100 100 100 100 100 100 100 100 97 95 93
18 16 15 12 10 10 9 8 7 6 7 7 5 4 4 4 4 4 3 3 6 16 31 46 49 52 72 62 54 70 41 40 31 19 19 34 88 100 100 100 100 99 97 97 100 96 93
17 16 13 12 10 10 9 9 8 6 7 8 6 4 5 5 6 5 4 6 16 30 48 58 86 90 69 51 60 67 54 47 38 29 24 31 41 52 82 98 100 100 100 95 92 90 89
19 14 12 12 10 11 10 8 8 9 10 10 7 5 7 7 7 8 9 18 30 43 70 82 73 58 74 55 40 37 55 60 58 42 36 33 38 55 59 80 95 100 87 83 90 93 94
17 13 11 12 11 12 11 9 8 10 11 11 8 7 9 10 10 14 16 24 35 50 83 78 78 80 79 81 74 61 68 77 80 67 53 46 41 48 58 69 77 91 96 87 86 96 98
15 12 11 11 11 12 11 10 8 10 12 12 9 9 9 14 14 17 28 33 45 52 66 73 72 84 95 94 97 97 96 82 78 87 92 85 99 100 100 97 96 89 82 82 92 90 84
13 12 11 11 11 11 11 10 8 12 14 12 10 11 10 15 21 19 24 36 42 56 58 69 76 88 90 87 77 93 97 93 93 95 100 100 100 100 96 84 76 76 84 90 97 97 94
12 11 11 11 11 10 11 11 9 12 15 14 11 12 12 18 23 32 30 35 41 48 55 59 72 86 88 84 83 81 84 90 90 95 98 97 100 100 98 90 96 100 100 100 99 99 100
11 10 10 11 10 9 9 10 11 10 14 16 13 14 14 15 27 34 42 44 46 52 60 70 80 91 94 82 71 70 76 78 78 73 81 89 99 99 94 90 100 99 100 100 100 100 93
10 10 9 9 10 9 9 10 11 9 14 15 16 15 16 16 20 40 48 51 60 76 77 76 82 89 86 86 71 68 72 75 75 80 75 89 100 100 93 100 100 100 100 100 100 94 79
9 9 9 8 8 9 9 10 12 11 13 15 18 17 16 20 18 23 36 56 69 66 87 85 85 83 77 80 75 69 75 77 81 84 86 94 98 97 99 93 97 100 100 98 88 70 61
9 8 8 8 7 8 8 10 11 12 12 14 15 19 19 18 20 22 24 35 53 82 78 77 83 74 79 87 85 79 89 96 98 100 100 100 100 89 89 94 100 100 92 78 72 65 63
8 8 7 8 7 7 8 9 9 11 11 12 12 16 17 20 19 19 23 24 31 58 73 83 77 77 74 83 99 97 94 94 97 100 100 100 95 79 85 94 95 81 72 74 80 73 65
8 7 7 7 7 7 8 8 9 10 9 11 11 14 15 18 24 21 18 22 24 28 42 62 72 84 81 78 88 85 74 61 53 54 66 60 64 78 95 89 76 73 70 85 94 69 59
7 7 7 7 7 6 7 8 8 9 8 9 9 12 14 13 18 23 24 18 19 22 29 39 50 71 79 79 81 65 51 48 45 50 64 86 99 89 71 68 73 62 65 87 79 65 70
6 6 7 7 6 6 7 7 8 8 7 8 8 11 12 13 11 15 18 21 21 24 23 30 39 45 72 78 82 71 53 51 60 81 87 86 77 80 66 60 63 70 79 80 79 78 88

GFSGBSN_250_rhum_024.txt.gz
RH
16 11 9 10 10 11 10 8 8 8 8 7 6 6 6 4 4 3 3 4 3 3 3 3 5 6 7 8 12 6 4 2 13 27 66 100 100 100 100 100 100 100 100 100 100 100 100
15 10 8 10 11 9 9 8 8 8 8 6 5 5 5 4 3 3 3 3 3 3 4 3 5 6 7 10 10 9 5 2 8 22 38 100 100 100 100 100 100 100 100 100 100 100 100
14 9 9 10 10 9 8 8 8 7 7 5 5 4 4 3 2 3 3 2 2 3 4 4 4 7 8 12 10 12 5 4 11 18 47 61 100 100 100 100 100 100 100 100 100 100 100
15 10 10 10 9 10 8 7 7 7 7 5 5 4 3 2 2 3 2 2 2 2 3 4 3 8 10 11 12 14 7 8 33 23 58 58 84 100 100 100 100 100 100 100 100 100 100
17 10 10 10 10 10 8 6 7 7 6 4 4 4 3 2 3 2 2 2 2 2 3 4 4 10 12 13 12 13 12 9 73 45 65 83 68 78 99 100 100 100 100 100 100 100 100
15 10 10 11 11 10 8 6 6 7 6 5 5 3 2 2 2 2 2 1 2 2 3 4 4 11 11 14 11 14 13 13 100 81 54 79 78 65 68 70 100 100 100 100 97 97 98
14 10 12 11 11 10 8 6 6 7 6 5 4 3 2 2 2 2 1 1 2 2 3 5 6 13 12 13 13 15 16 19 100 100 83 80 82 98 100 83 55 76 100 100 100 100 100
15 12 12 11 11 11 8 6 6 6 6 4 4 3 2 2 2 2 1 2 2 3 4 5 6 12 13 14 16 15 19 27 95 100 67 45 85 88 86 99 78 58 88 100 100 100 100
14 13 12 12 11 10 9 6 5 6 5 5 3 3 2 2 2 2 1 2 3 4 5 6 7 12 14 15 15 17 20 29 98 100 90 51 93 100 98 100 100 99 83 86 100 100 100
15 12 11 12 11 11 8 6 5 6 5 5 3 3 2 3 2 2 2 2 3 4 5 6 7 13 16 18 17 19 27 34 68 86 75 67 86 100 96 98 100 100 97 80 94 100 100
14 13 12 12 11 11 8 7 5 5 5 5 3 3 3 3 2 2 2 2 3 4 4 5 10 16 17 19 17 23 30 26 67 75 99 51 64 87 86 96 100 100 98 93 94 98 100
15 14 14 12 11 10 8 7 5 5 5 4 4 3 3 3 3 2 3 3 4 4 4 6 11 24 24 22 20 23 30 23 33 56 72 44 80 75 80 95 100 100 100 98 93 95 100
15 16 15 13 12 10 8 8 5 6 6 5 4 4 3 3 3 3 3 3 4 4 6 12 24 27 26 24 22 26 30 26 32 39 55 34 66 71 79 89 100 99 100 100 100 100 100
17 15 14 12 12 11 9 8 5 6 7 6 6 4 3 3 3 3 3 3 5 9 19 24 27 30 33 34 25 32 36 28 27 35 52 45 36 72 93 98 97 97 100 100 100 100 100
15 14 13 13 11 12 10 8 6 7 7 8 7 5 5 5 5 4 4 5 16 27 32 36 40 39 38 38 30 37 34 28 30 29 33 43 54 82 86 96 100 100 99 86 86 96 99
16 13 13 12 11 11 10 8 6 7 9 10 9 7 7 8 10 7 8 14 23 32 40 44 46 50 47 44 44 36 30 34 29 30 31 34 49 57 94 100 100 100 100 97 95 98 98
13 12 13 13 12 11 10 8 7 7 10 11 10 8 8 12 13 14 12 19 24 28 36 38 44 40 38 35 31 28 33 37 38 37 37 33 28 39 58 88 100 100 100 100 100 100 100
11 11 11 12 13 11 10 8 7 7 10 12 12 10 8 13 15 20 21 25 37 50 49 54 57 64 77 76 61 42 54 56 48 48 39 33 27 30 40 72 100 100 100 100 97 100 99
10 10 11 11 12 10 9 8 7 7 10 12 13 10 10 12 19 23 26 36 41 54 63 71 77 74 65 58 70 75 72 56 56 54 48 41 39 46 55 66 77 85 99 100 100 98 100
10 9 10 11 11 9 9 8 8 7 10 12 14 12 11 12 16 30 34 34 46 54 68 74 78 81 89 85 68 68 70 72 77 76 77 68 50 50 67 66 66 71 73 82 91 94 85
11 10 9 10 9 8 8 8 8 7 10 10 14 12 11 12 14 25 39 44 44 46 53 59 71 86 90 90 80 80 66 75 80 83 79 77 81 73 64 54 57 58 60 69 82 87 95
10 10 9 9 8 7 7 8 8 8 9 11 13 13 13 12 14 17 27 44 56 57 59 58 69 80 81 79 72 69 76 81 84 84 83 87 87 86 86 94 97 100 100 93 86 87 95
9 9 8 8 7 7 7 8 8 7 8 10 13 12 13 13 14 15 20 26 41 55 71 76 75 77 87 78 76 72 73 70 74 85 93 96 94 90 86 89 92 99 100 100 100 100 100
7 8 7 7 6 7 7 7 8 7 7 8 12 12 13 14 14 17 18 22 28 42 49 71 84 88 86 80 87 88 77 70 78 83 78 83 88 90 88 98 100 100 98 98 100 100 98
6 7 6 6 6 7 7 7 7 7 7 7 9 10 14 16 13 15 18 20 23 33 42 56 57 78 89 73 78 89 87 86 81 88 90 85 94 87 87 98 94 96 95 99 100 95 87
6 6 6 6 6 6 7 7 7 7 7 8 9 9 11 15 18 16 15 18 19 22 28 50 45 60 74 79 82 86 87 96 100 100 100 100 96 99 96 100 96 100 98 94 94 100 97
7 7 7 7 7 6 6 6 7 7 7 8 8 9 9 11 15 17 17 16 17 21 24 28 38 52 60 69 70 88 92 94 94 94 98 100 100 94 96 100 100 100 90 94 100 100 92
7 7 6 6 6 6 6 5 6 7 7 8 7 8 9 9 12 15 16 17 18 19 21 24 28 41 44 55 68 72 94 98 92 87 88 95 97 80 90 87 91 83 82 100 93 80 72
7 7 6 6 5 5 5 5 6 7 7 7 7 8 9 9 10 12 12 16 19 20 22 20 25 25 33 43 70 68 77 92 77 63 57 61 75 79 63 67 81 94 95 73 74 74 83

GFSGBSN_250_rhum_027.txt.gz
RH
20 14 9 8 6 7 7 7 8 9 8 6 5 4 4 4 4 3 2 3 3 2 3 4 3 3 5 5 6 7 7 8 10 14 70 100 100 100 100 100 100 100 100 100 100 100 100
18 11 7 7 7 8 7 7 8 8 7 5 4 4 3 3 3 2 2 3 3 2 3 3 3 4 4 6 8 7 8 9 8 12 17 100 100 100 100 100 100 100 100 100 100 100 100
12 9 7 7 8 7 7 7 7 8 5 4 4 3 3 3 2 2 2 2 2 2 2 2 3 3 4 8 8 8 8 9 8 6 16 46 100 100 100 100 99 100 97 100 100 100 100
9 8 7 8 8 7 6 6 7 7 5 4 3 3 3 3 2 2 2 2 2 2 2 2 2 3 5 7 10 11 7 10 10 6 8 17 64 100 100 100 99 100 94 100 100 100 100
10 10 9 8 8 7 6 6 6 6 5 4 3 3 3 2 2 2 2 1 1 1 2 2 3 4 5 8 11 10 11 11 13 11 7 9 24 56 100 100 100 93 100 100 100 100 99
11 10 9 9 8 6 6 5 6 5 5 4 3 3 2 2 2 2 2 1 1 1 2 2 4 5 6 8 12 13 13 13 16 14 10 6 14 26 92 100 100 100 100 100 100 100 100
11 11 8 8 8 6 6 5 5 5 4 3 3 2 2 2 2 2 1 1 2 2 2 3 5 6 6 9 13 14 14 16 17 11 6 14 8 27 46 100 100 100 100 100 100 100 100
18 11 9 8 8 7 6 5 5 4 4 4 3 2 2 2 2 2 1 1 2 2 2 3 5 6 9 14 14 14 16 18 19 12 7 16 14 24 38 51 99 100 100 100 100 100 98
22 16 9 8 8 7 6 5 5 5 4 3 3 3 2 2 2 2 2 2 2 2 3 4 5 6 9 16 16 17 24 24 28 21 16 14 20 15 26 42 54 100 100 100 100 100 99
23 15 8 8 8 7 7 5 5 5 4 4 3 3 3 2 2 2 2 2 3 3 3 6 7 8 11 16 18 20 29 33 27 29 17 18 18 22 19 47 65 79 100 100 100 100 100
16 10 8 8 8 7 8 6 5 5 5 4 3 3 3 3 2 2 2 3 4 4 5 6 7 10 14 18 18 22 25 27 35 30 30 32 13 21 28 52 64 99 94 100 100 100 100
12 10 9 9 8 8 8 6 5 6 6 5 4 4 4 3 3 3 2 3 4 5 5 6 8 17 21 20 23 26 27 37 35 45 41 36 20 21 41 57 80 90 94 98 99 100 100
12 11 9 10 9 10 9 7 6 6 6 6 5 5 4 4 4 4 4 3 4 6 8 12 15 23 21 21 25 23 22 27 32 37 35 30 16 27 50 78 82 97 98 96 96 95 100
12 11 10 9 10 10 9 8 6 6 6 7 7 7 5 4 6 6 6 5 6 8 18 20 26 27 27 31 27 29 23 36 33 33 30 29 17 26 34 65 80 85 99 97 100 100 100
11 10 10 10 10 9 8 8 6 6 7 8 8 8 7 6 8 10 10 12 13 15 19 24 26 28 28 26 32 37 28 27 53 37 40 27 21 29 58 66 72 84 93 98 98 95 98
12 10 10 11 10 8 8 7 6 6 7 8 8 9 9 7 10 15 15 16 25 24 25 25 28 27 28 26 29 28 24 29 38 51 55 43 27 30 44 80 76 80 82 92 90 98 98
11 11 10 10 9 8 7 7 6 6 8 8 8 10 9 9 10 16 19 19 25 30 35 37 37 37 38 40 40 32 33 31 30 44 56 66 32 34 39 57 82 85 82 96 88 96 100
12 11 11 10 10 7 6 7 7 6 7 8 8 10 10 10 12 17 21 29 31 33 36 40 45 48 39 37 37 35 33 37 38 39 41 42 33 36 38 46 72 90 91 98 97 95 92
11 11 12 12 9 7 7 7 7 6 6 8 8 9 10 12 11 14 23 30 36 41 40 46 56 61 61 58 38 38 46 40 39 43 44 40 37 40 44 49 49 73 91 96 99 94 93
12 13 12 12 9 8 7 7 7 7 6 7 8 9 10 13 13 12 19 33 42 46 51 55 58 60 69 68 67 66 46 48 52 52 51 45 40 42 44 47 46 60 63 83 97 95 100
14 13 12 12 9 8 8 8 8 8 7 7 8 9 9 10 12 14 15 25 38 51 57 61 66 76 81 83 79 76 78 63 53 58 61 61 52 47 48 51 47 43 47 53 69 81 96
14 14 13 11 9 8 8 8 8 8 8 7 8 9 9 10 12 13 14 17 26 38 51 66 69 68 72 77 76 78 85 88 86 74 75 72 66 57 55 52 68 68 76 94 100 100 100
17 15 13 11 9 8 8 8 8 8 8 7 8 8 10 10 10 13 14 16 18 24 40 50 59 79 83 76 65 65 72 98 92 83 87 85 77 75 62 54 53 62 66 80 86 81 87
18 16 14 12 8 8 7 8 7 7 7 7 7 8 9 10 11 12 13 15 17 19 22 34 51 62 89 98 66 65 67 71 85 99 100 98 97 90 82 84 78 79 84 92 97 100 100
18 16 13 10 8 7 7 6 6 6 6 6 7 8 8 9 12 13 12 14 15 19 21 22 33 44 56 99 88 66 70 80 85 80 84 94 99 100 99 95 89 93 94 97 99 100 100
18 16 12 9 8 6 6 5 5 5 6 5 6 8 8 8 10 14 12 12 15 18 21 24 24 29 33 67 99 89 74 83 95 92 94 94 88 94 98 100 100 100 99 96 99 100 100
16 14 10 8 7 6 5 4 4 5 5 5 6 7 8 8 8 12 14 15 14 15 18 24 27 27 26 30 67 100 94 92 93 100 100 98 98 100 100 100 98 95 91 98 100 99 100
12 10 9 7 7 6 4 4 4 4 5 5 6 6 8 8 8 9 12 17 19 19 17 18 24 29 31 28 31 79 99 100 95 93 100 100 100 94 96 99 100 92 93 97 98 98 100
9 8 7 6 6 5 4 4 4 5 5 5 5 6 8 8 7 9 10 12 14 20 22 28 27 18 28 35 28 31 83 95 100 100 100 98 100 99 86 88 98 93 100 100 100 96 96

GFSGBSN_250_rhum_030.txt.gz
RH
20 18 9 9 6 6 5 5 6 5 4 4 4 3 3 3 3 2 2 2 3 3 3 3 3 3 4 5 7 8 7 6 7 12 17 44 97 100 100 100 100 100 100 100 100 96 90
18 14 10 8 6 5 5 4 5 5 4 4 3 3 3 2 2 2 2 2 2 2 2 2 3 3 3 4 7 7 7 7 7 9 14 26 89 100 100 100 100 100 100 100 100 100 88
21 16 10 6 6 5 5 4 5 5 4 3 3 3 3 2 2 2 2 2 2 2 2 2 2 3 4 5 6 6 8 8 8 10 12 18 66 100 100 100 100 100 100 100 100 100 100
16 16 8 6 5 5 5 4 4 5 4 3 3 3 2 2 2 2 2 1 1 1 1 2 2 3 4 5 6 8 8 7 8 9 10 17 25 97 100 100 100 99 100 100 100 100 100
13 12 9 7 5 5 4 4 4 4 3 3 2 3 2 2 2 2 1 1 1 1 1 1 2 2 4 5 5 6 8 8 9 10 11 15 17 61 100 100 100 100 100 100 100 100 100
22 14 10 6 5 5 4 4 4 4 3 3 3 3 2 2 2 2 1 1 1 1 1 1 2 2 4 5 7 7 10 10 10 10 11 14 19 42 92 100 100 100 100 100 100 100 100
17 15 10 7 6 5 4 4 4 4 3 3 3 3 2 2 2 2 1 1 2 2 2 2 2 3 4 6 8 10 12 12 12 11 13 12 15 20 90 100 100 100 100 100 100 97 100
15 18 10 7 6 6 4 4 5 4 4 3 3 3 2 2 2 2 2 2 2 2 2 2 2 3 6 7 8 11 11 15 14 14 13 15 10 14 22 91 100 100 100 100 100 100 97
14 15 10 7 7 6 5 4 5 4 4 3 3 3 2 2 2 2 2 2 2 3 2 2 4 6 7 9 11 13 21 28 40 25 18 17 15 10 13 23 84 100 100 100 100 100 100
20 16 11 8 8 6 5 4 5 5 4 4 4 3 3 3 3 2 2 2 3 4 4 4 5 7 8 11 12 22 24 31 29 26 20 21 17 12 9 17 25 92 100 100 100 100 100
20 17 14 9 9 7 6 5 5 6 5 5 4 4 3 3 4 3 2 2 3 4 6 5 5 6 8 12 23 28 26 24 26 24 19 20 20 12 8 10 31 39 100 100 100 100 100
24 18 16 10 9 8 6 5 5 7 6 6 5 5 4 4 4 4 4 3 3 5 7 7 7 10 16 23 30 25 24 29 35 28 21 20 19 17 14 11 25 38 58 100 100 100 100
28 22 17 10 10 9 7 6 6 7 7 7 6 6 6 5 5 7 6 6 5 8 10 11 14 17 21 28 23 22 23 19 19 25 22 17 16 16 18 15 20 18 26 59 96 100 100
32 27 21 11 10 10 8 8 7 7 8 8 8 7 6 6 6 8 11 9 11 13 13 17 20 23 27 28 23 19 20 23 22 21 19 16 15 15 12 8 9 20 27 41 67 100 100
28 25 20 17 13 11 9 9 7 7 8 9 9 7 7 8 8 10 14 12 17 22 23 21 22 24 23 26 28 28 28 24 23 21 20 17 18 19 16 14 12 26 42 55 55 84 100
22 22 24 23 16 12 10 9 8 8 8 9 9 8 8 8 8 9 14 17 18 23 24 24 30 27 28 27 28 31 29 31 38 38 29 24 21 21 20 18 20 47 42 28 54 74 98
25 22 28 27 17 12 10 9 8 8 8 9 10 9 8 8 9 9 13 20 28 28 28 31 30 30 29 27 26 25 29 31 30 36 35 32 27 26 30 30 42 64 70 65 86 79 97
24 25 29 29 21 12 10 9 8 8 8 8 10 10 9 8 9 10 11 17 27 38 37 38 43 40 36 36 34 31 29 41 50 38 39 38 30 37 36 38 62 59 89 100 96 94 95
19 26 31 32 23 12 10 9 8 7 7 8 9 9 10 9 9 11 12 15 21 34 42 48 51 54 51 48 49 47 41 44 50 57 55 46 45 32 45 53 60 95 96 95 96 100 94
22 28 23 27 24 13 9 8 8 7 7 7 7 7 10 9 9 10 12 12 19 25 41 53 59 62 61 64 58 54 45 47 46 46 50 50 47 45 34 43 54 67 97 98 99 94 93
18 24 28 28 21 14 8 8 8 7 6 6 6 6 8 10 9 10 12 14 15 24 33 49 66 69 73 72 67 67 61 59 48 49 50 55 55 46 42 42 40 38 52 76 91 89 90
22 22 22 19 20 13 9 8 7 7 6 5 5 6 6 9 10 9 11 14 15 16 23 39 55 81 91 94 77 64 71 67 68 52 56 58 59 58 52 51 52 52 39 43 70 82 88
16 21 18 18 17 11 9 7 6 6 6 5 5 5 5 7 10 10 9 12 15 16 19 24 35 49 78 92 79 70 72 75 82 82 71 66 64 68 66 57 56 58 54 50 48 49 58
22 19 15 15 14 10 8 6 5 6 6 5 5 5 5 7 9 10 9 10 12 13 15 19 22 32 47 83 83 76 65 73 81 84 87 80 79 69 68 65 65 62 76 76 86 93 100
21 15 16 12 12 10 8 6 5 5 5 5 5 5 6 6 8 10 10 11 12 14 16 16 20 22 28 49 81 90 82 75 83 92 97 93 89 87 78 71 65 74 74 81 83 92 88
17 12 12 10 10 9 8 7 6 5 5 5 5 5 6 6 7 9 10 12 14 15 16 16 17 21 26 32 59 85 93 95 78 84 93 99 99 98 97 93 81 70 71 77 81 92 96
11 10 9 10 8 8 8 7 6 5 5 5 5 5 5 6 7 8 9 10 14 15 15 18 20 17 21 26 35 71 91 98 94 92 85 89 97 97 100 99 100 98 96 93 90 97 100
9 10 9 7 7 6 7 6 6 5 5 5 5 5 5 6 7 8 8 10 14 16 15 19 21 22 22 20 23 37 88 94 98 100 99 100 99 86 93 98 99 98 100 100 99 98 99
8 8 7 6 6 6 5 5 4 4 4 5 5 5 5 5 6 8 8 9 11 14 14 18 22 18 22 25 24 23 39 83 97 96 100 100 98 98 93 80 88 98 100 100 96 96 96

GFSGBSN_250_rhum_033.txt.gz
RH
17 17 15 11 7 6 5 5 4 3 3 3 3 3 2 2 2 2 2 2 2 2 2 2 3 4 4 6 8 8 8 8 7 8 11 13 31 100 100 100 100 100 100 100 97 100 100
19 20 16 10 7 6 5 5 4 3 3 3 3 2 2 2 2 2 2 2 2 2 2 2 3 3 3 4 5 8 7 8 8 8 9 12 21 95 100 100 100 100 100 100 100 100 100
21 23 16 11 8 6 6 5 4 3 3 3 3 2 2 2 2 1 1 1 1 1 2 2 2 3 3 4 5 6 7 8 8 8 8 12 14 38 100 100 100 100 100 100 100 100 100
26 23 18 15 9 7 6 5 3 3 3 3 3 2 2 2 2 2 1 1 1 1 1 1 2 2 3 3 4 7 9 8 8 7 8 9 13 28 100 100 100 100 100 100 100 100 100
34 24 22 17 11 8 7 5 3 3 3 3 3 3 2 2 2 2 1 1 1 1 1 1 1 2 3 4 5 6 9 9 9 9 8 9 10 13 46 100 97 99 100 100 100 100 100
28 24 17 15 12 9 7 6 4 3 3 3 3 3 3 2 2 2 1 1 1 2 1 2 1 2 3 5 6 8 10 13 13 10 9 9 10 12 16 57 100 100 100 100 100 100 100
22 20 19 17 14 9 6 5 4 3 3 3 3 3 3 3 2 2 2 2 2 2 1 2 2 3 4 4 5 8 12 12 12 10 11 10 11 12 17 53 83 100 100 100 100 100 100
22 24 24 18 12 9 7 6 4 4 3 3 3 3 3 3 3 2 2 1 2 2 2 2 2 3 5 6 6 7 8 12 9 9 9 10 11 13 16 21 44 99 100 100 100 100 100
36 22 22 17 13 9 8 6 5 4 4 4 3 3 3 3 3 3 2 2 2 2 2 2 3 3 5 6 6 7 9 20 14 14 14 12 11 12 14 18 26 61 100 100 100 100 99
34 25 26 21 14 11 8 7 6 5 5 5 4 4 4 3 4 4 3 2 2 3 4 3 3 4 6 8 9 13 17 18 15 16 16 15 13 13 14 16 26 43 82 100 100 100 93
27 28 26 19 17 12 9 7 7 6 6 6 6 5 4 4 4 4 5 4 2 3 5 5 6 6 9 12 19 22 26 28 23 22 18 17 15 16 15 15 19 34 49 96 100 100 100
26 30 22 24 21 16 10 8 7 7 7 7 7 6 6 5 5 4 6 5 3 4 5 7 9 10 12 14 18 25 27 24 23 20 18 18 17 17 17 14 16 29 43 67 100 100 100
32 26 30 26 24 18 12 8 8 6 7 7 8 7 6 6 7 6 7 9 8 9 8 9 11 12 12 13 18 20 20 23 20 19 18 18 19 17 16 14 13 16 34 39 60 100 100
28 25 33 27 24 20 14 7 7 7 7 8 8 7 7 7 8 7 8 14 10 15 14 14 12 14 15 14 16 20 21 20 19 20 16 16 15 15 13 14 15 12 21 36 48 98 100
31 24 21 22 25 21 15 9 7 7 8 7 8 7 7 7 8 9 9 15 14 18 20 19 20 18 19 23 23 24 21 19 18 16 15 14 15 15 14 14 14 15 12 18 42 76 99
28 29 28 26 28 23 16 11 7 6 7 7 8 8 8 8 7 9 9 12 17 20 23 25 22 23 24 25 26 28 29 29 28 26 20 17 16 15 15 17 17 16 15 12 14 36 46
28 36 35 36 39 24 18 13 8 7 7 6 7 7 7 8 8 8 10 11 16 28 30 26 29 28 27 26 26 27 29 31 32 32 29 24 22 20 19 20 21 22 20 15 14 22 26
29 29 41 46 38 22 18 13 9 7 7 6 6 7 6 8 8 9 10 12 13 19 33 37 40 36 42 35 29 27 24 26 36 31 25 26 22 32 32 30 25 24 19 20 24 34 34
26 25 33 42 47 19 20 14 10 8 7 6 6 7 6 7 7 9 10 12 12 16 26 39 47 48 48 40 40 49 47 37 30 29 28 25 26 29 32 43 45 34 30 21 19 29 39
31 34 31 43 46 18 19 13 9 7 6 6 5 6 6 6 8 8 9 11 13 14 22 34 51 57 60 60 54 42 42 48 49 44 40 39 32 32 32 44 82 82 67 67 48 52 57
24 35 30 39 43 20 17 12 10 8 6 6 6 5 6 6 7 8 9 10 12 14 14 23 37 52 56 59 62 64 56 50 52 52 53 45 39 41 36 39 54 73 94 100 100 100 98
33 29 28 28 40 19 16 12 9 8 6 5 6 5 6 6 6 8 8 9 10 13 15 16 26 40 56 54 52 55 56 60 57 51 43 39 42 41 41 46 47 62 70 83 97 100 100
32 25 26 33 36 18 14 11 10 8 6 5 5 5 5 6 6 7 8 9 9 12 14 17 19 28 45 58 57 45 52 60 59 56 60 54 45 43 49 40 47 53 58 70 88 88 100
25 26 27 26 21 14 12 8 8 7 5 5 5 5 5 6 6 6 7 8 9 10 13 16 17 18 26 39 70 54 48 58 70 68 63 67 65 55 52 47 56 51 58 58 55 76 84
22 30 31 19 20 17 12 8 7 6 5 4 4 5 5 5 6 6 7 8 9 10 13 15 16 18 20 26 48 76 59 58 64 74 77 77 84 85 79 72 62 63 68 74 76 69 70
22 19 22 16 15 14 11 7 6 5 4 4 4 4 5 5 6 6 7 8 10 10 10 14 14 16 18 22 28 54 70 55 60 63 71 81 85 89 88 85 89 79 80 98 100 100 95
16 23 19 14 13 11 9 6 6 5 4 4 4 4 5 6 6 6 7 9 10 12 13 14 14 16 18 18 23 29 60 69 63 64 70 73 80 87 95 94 94 91 87 88 98 86 98
14 15 13 9 10 10 7 6 5 4 4 4 4 4 4 5 6 7 7 9 10 12 16 19 20 16 18 20 22 26 37 66 74 74 81 89 91 82 83 90 96 96 97 93 89 84 87
8 8 8 9 8 9 7 5 5 4 4 4 4 4 4 5 7 8 7 9 11 11 13 14 20 25 27 22 23 26 33 38 74 80 83 84 84 96 96 92 87 92 98 99 100 98 89

GFSGBSN_250_rhum_036.txt.gz
RH
25 30 29 18 11 8 7 6 6 4 3 3 3 3 2 2 2 2 2 2 2 2 2 2 2 3 5 7 7 9 9 10 9 8 8 11 15 65 100 100 100 93 91 99 94 83 78
27 34 37 19 15 10 8 5 5 4 3 3 3 3 2 2 2 2 1 1 1 2 2 2 2 2 4 7 6 8 8 9 10 9 9 10 14 24 100 100 100 100 100 100 75 100 97
33 35 33 22 16 11 8 5 5 4 3 3 3 3 2 2 2 2 1 1 1 1 1 1 2 2 3 5 7 9 9 9 10 10 9 10 12 17 57 100 100 100 99 100 80 100 100
36 36 32 25 20 12 8 5 6 4 3 2 3 3 2 2 2 2 1 1 1 1 1 1 1 2 3 3 5 7 8 8 10 11 10 9 10 16 20 90 100 94 91 94 82 100 100
32 39 33 24 21 14 9 6 5 4 3 2 3 3 2 2 2 2 2 1 1 1 2 2 2 2 2 4 6 8 8 8 9 11 11 10 10 12 17 37 99 100 87 89 100 100 100
29 41 29 23 18 12 9 7 5 4 3 2 2 2 2 2 2 2 2 2 1 1 1 2 2 2 2 4 6 9 9 9 10 12 12 10 9 10 12 14 40 100 100 100 100 86 100
30 37 28 26 20 15 8 8 6 5 3 2 3 2 2 2 2 2 2 2 1 1 1 1 2 2 2 3 5 8 11 13 12 12 12 11 9 9 10 16 21 77 100 100 100 100 94
34 32 29 32 29 20 11 8 6 5 3 3 3 3 3 2 2 3 3 2 2 2 2 2 2 2 2 3 5 7 9 11 15 14 12 10 9 9 9 12 14 20 100 100 100 100 91
41 26 35 42 36 32 20 8 7 5 4 3 4 4 4 3 2 3 3 3 2 2 2 2 2 2 3 4 5 7 11 14 19 17 12 13 12 11 9 10 13 15 31 90 100 100 100
33 27 33 40 36 40 26 10 7 6 4 4 4 4 4 3 3 3 4 4 3 2 4 3 3 4 4 5 5 7 11 13 17 19 17 15 13 12 12 10 12 17 18 25 90 100 100
34 26 27 28 40 47 41 22 10 6 4 4 5 5 5 4 3 4 4 5 4 4 4 4 4 6 8 9 9 8 11 14 18 19 14 12 11 11 12 12 12 14 18 21 51 100 100
42 23 22 27 45 44 48 32 11 7 5 5 5 6 5 5 4 4 5 6 5 6 6 6 6 6 6 9 12 13 13 14 14 12 12 18 16 13 12 13 13 14 18 20 26 76 86
44 22 20 29 41 42 45 42 21 8 6 5 5 6 6 6 5 5 6 7 7 10 9 10 9 8 9 8 10 14 18 16 16 18 16 16 15 15 15 16 16 14 17 18 21 25 95
35 24 22 28 36 44 47 36 21 9 7 6 6 6 6 6 6 5 6 7 8 11 12 11 15 18 16 14 11 14 16 18 18 20 19 19 17 16 18 17 16 14 14 17 19 22 21
28 22 22 32 38 46 46 39 23 11 8 6 5 7 7 6 6 6 6 8 8 11 14 16 16 19 23 24 20 21 18 16 16 17 17 17 17 16 16 15 14 12 13 15 17 24 26
26 18 23 35 38 47 54 32 29 14 8 6 6 6 7 6 6 6 7 9 9 11 15 19 22 23 22 24 26 27 27 30 24 21 20 20 18 18 17 15 13 13 14 13 15 18 23
20 21 27 30 36 45 47 37 30 20 10 6 6 6 7 6 6 6 6 8 10 11 14 18 21 27 27 25 24 26 32 39 35 31 27 27 25 25 23 20 17 15 15 15 15 16 20
22 27 30 30 34 46 47 34 32 16 10 7 5 6 7 7 6 6 6 7 9 12 14 19 24 29 28 30 30 27 27 27 32 34 24 24 27 30 30 26 24 20 18 18 17 15 16
21 23 30 30 30 35 49 34 42 21 10 7 5 6 6 6 6 6 6 6 8 11 12 17 25 34 40 43 34 32 32 32 34 34 29 28 25 26 27 34 32 29 22 20 21 21 16
22 22 27 28 33 30 35 51 48 18 9 6 5 6 6 6 6 6 6 7 7 10 11 13 22 30 43 52 50 48 34 38 38 36 36 37 27 31 34 43 35 29 28 26 24 24 23
26 26 27 24 30 33 42 42 40 17 9 6 5 5 6 6 6 6 7 7 7 8 11 12 12 17 30 46 55 58 55 45 36 37 42 44 39 29 39 41 43 46 41 37 33 25 26
28 26 29 28 33 37 40 41 33 13 9 6 5 5 5 5 5 6 7 7 8 8 10 12 14 16 16 24 38 53 55 55 54 42 36 38 36 40 37 40 41 52 54 55 43 42 28
28 26 29 31 34 34 27 29 25 12 9 5 4 4 4 5 5 6 7 7 8 8 9 12 12 13 16 18 24 34 44 53 64 56 46 36 35 36 39 36 46 58 57 54 65 81 81
31 24 28 40 38 26 18 26 19 10 8 5 4 4 4 4 4 5 6 7 8 9 9 11 14 14 15 18 21 24 40 44 48 62 65 53 42 36 38 38 50 53 76 78 82 82 86
33 27 26 26 30 26 17 22 15 10 7 5 4 4 4 4 4 5 6 8 8 9 9 11 14 16 18 18 20 22 27 46 44 47 57 68 60 50 46 41 45 52 59 64 74 80 75
32 35 28 27 30 23 20 21 13 8 7 5 4 4 4 4 4 5 6 8 8 9 10 11 13 16 17 20 21 24 26 29 46 44 45 60 74 74 70 65 70 61 66 70 65 63 76
33 32 28 26 17 20 17 16 14 7 6 4 4 4 4 4 4 4 6 8 10 10 11 11 13 17 20 23 21 23 26 31 36 50 50 48 65 74 82 80 78 74 62 68 79 66 68
28 34 25 19 11 12 13 12 10 7 6 5 4 4 4 4 4 5 6 8 10 11 12 12 16 13 20 24 24 24 25 29 32 46 59 55 53 58 83 90 93 79 78 91 72 70 75
26 20 21 12 8 11 8 8 8 6 6 4 4 4 4 4 4 5 6 8 11 12 14 14 16 24 32 21 26 27 30 29 33 49 68 73 68 66 66 82 88 94 94 91 95 87 87

GFSGBSN_250_rhum_039.txt.gz
RH
42 41 28 21 22 22 13 10 7 5 4 3 3 3 2 2 2 2 2 2 1 1 2 1 2 2 4 7 5 6 8 9 11 10 8 9 11 14 22 100 100 100 100 98 74 96 100
36 50 31 26 25 22 15 11 6 4 4 3 2 2 2 2 2 2 2 2 1 1 2 2 2 2 4 6 7 7 8 10 12 12 9 9 10 14 16 78 100 100 100 100 81 91 100
36 50 30 35 31 20 17 10 6 4 3 3 2 2 2 2 2 2 2 2 1 1 1 2 2 2 3 4 7 9 6 9 11 12 10 10 10 12 15 34 100 100 100 100 71 97 100
37 50 32 37 32 22 20 12 8 5 3 3 2 2 2 2 2 2 2 2 1 1 1 2 2 2 2 3 5 8 7 8 10 12 12 10 9 10 15 18 100 100 100 90 74 82 100
44 47 42 34 32 24 23 12 9 5 4 3 2 2 2 2 2 2 2 2 1 2 1 1 2 2 2 3 4 6 7 7 10 12 12 10 9 10 12 18 41 100 100 99 88 78 94
49 42 46 35 32 24 24 15 13 7 5 3 2 2 2 2 3 2 2 2 1 2 2 1 2 2 2 3 3 4 7 8 8 12 11 11 10 9 10 16 21 100 100 100 100 91 72
48 44 45 38 32 26 29 23 16 10 6 4 3 2 2 2 3 2 2 2 2 2 2 1 2 2 2 2 3 4 6 8 8 8 12 12 11 10 12 13 18 43 100 100 100 100 70
44 49 42 45 32 26 28 29 21 12 7 5 3 3 3 2 3 3 3 3 3 2 2 2 2 2 2 3 3 4 7 10 10 11 13 12 12 12 11 11 14 19 84 100 100 95 64
43 59 40 48 32 27 25 31 24 15 8 6 4 3 3 3 3 3 3 3 3 2 2 3 2 2 2 3 4 5 7 13 16 13 13 14 14 13 11 10 10 14 23 97 100 100 86
51 52 48 45 33 25 22 32 26 18 11 7 4 4 3 4 4 4 3 4 4 4 3 4 3 3 3 2 4 6 7 11 18 18 12 12 14 13 12 11 10 12 17 20 95 100 93
59 52 50 46 36 27 22 38 34 18 15 7 6 4 4 5 4 4 4 4 5 4 6 4 5 4 4 4 4 5 7 11 17 18 17 17 14 13 13 12 10 11 12 17 25 84 99
63 48 57 49 36 25 26 35 38 22 21 9 6 4 4 5 6 5 4 4 6 5 6 5 5 7 7 6 6 7 7 9 16 20 19 19 15 13 14 13 12 10 10 14 19 24 62
62 50 60 49 30 26 26 38 45 36 26 10 6 5 4 5 7 5 5 4 6 6 8 9 6 6 10 8 9 9 9 12 14 15 16 20 19 15 14 14 15 15 13 13 15 18 24
60 57 53 41 32 24 30 40 53 40 26 12 6 5 5 5 6 6 6 5 5 7 7 10 10 9 10 14 13 12 13 14 15 15 17 23 20 16 13 12 12 17 18 17 16 21 27
58 61 52 36 30 25 28 45 56 51 33 13 7 6 5 5 6 6 6 6 5 6 8 8 13 14 13 17 20 22 21 16 18 19 22 24 22 21 18 16 14 14 17 18 18 16 17
69 62 52 38 31 25 26 40 55 60 35 18 7 6 4 5 5 6 6 6 6 7 8 9 10 15 16 16 20 24 25 27 29 29 30 27 26 23 22 19 18 19 17 18 17 16 14
78 58 54 37 28 26 23 38 51 56 36 27 10 6 5 4 5 6 6 7 6 7 8 10 10 13 19 18 19 21 23 31 31 29 31 28 24 24 23 22 19 17 15 15 16 15 14
72 57 52 36 26 28 28 35 46 44 40 29 12 6 5 4 5 5 6 6 7 6 9 11 16 18 22 23 22 21 25 25 29 28 29 30 34 34 29 22 20 18 16 16 15 14 14
64 57 55 29 26 25 27 33 36 42 30 24 12 6 5 4 4 5 5 6 7 7 7 10 11 17 26 32 31 27 26 28 26 27 28 31 27 28 36 36 33 26 20 18 16 15 14
54 58 47 26 28 24 31 33 32 33 38 33 18 6 5 4 4 4 5 5 6 7 7 9 11 14 15 23 38 43 38 34 30 26 26 26 31 37 34 33 30 26 25 24 20 19 17
56 50 41 32 28 25 27 33 34 37 36 23 14 8 6 4 4 4 4 5 6 7 7 8 10 13 15 14 20 37 44 41 37 36 32 28 25 25 31 40 39 39 31 27 24 20 20
56 46 37 29 23 24 27 33 35 36 34 17 12 7 6 5 4 4 4 4 6 7 8 8 9 13 15 16 18 18 35 47 47 44 41 44 40 30 29 37 40 36 42 46 27 25 21
44 51 34 27 26 25 30 34 31 33 34 15 11 6 6 5 4 4 4 4 6 7 7 8 9 10 14 17 18 23 24 34 43 45 45 40 41 43 39 27 40 47 43 41 38 28 24
48 43 34 31 29 27 32 37 31 28 36 15 9 7 5 5 4 4 4 4 5 7 7 8 8 10 14 17 18 19 22 27 47 48 47 47 41 34 35 44 44 37 38 49 38 35 39
46 43 35 39 34 31 29 31 30 20 31 17 8 7 6 5 4 4 4 4 5 7 8 9 9 9 11 15 18 19 19 20 29 55 55 56 53 47 39 35 38 36 44 48 44 43 50
47 44 42 40 34 32 36 28 27 17 24 20 9 7 7 5 4 4 4 4 5 7 8 9 10 10 11 15 18 19 20 21 25 34 57 60 60 55 51 43 36 33 46 59 55 62 63
41 42 42 38 36 34 32 25 22 14 21 18 10 10 8 5 4 4 4 5 5 7 9 9 11 12 12 13 15 20 20 22 23 27 37 60 60 65 63 58 41 46 54 56 70 74 76
31 35 38 38 42 32 31 22 19 15 17 14 10 13 8 5 4 4 4 5 6 8 9 10 12 12 16 16 16 19 21 24 24 28 29 40 64 66 73 65 64 61 58 57 56 59 74
28 30 37 36 36 31 23 20 18 12 15 12 11 12 9 5 4 4 5 5 6 8 9 10 14 14 16 20 23 24 24 26 28 28 32 38 48 73 70 69 68 74 68 64 68 64 66

GFSGBSN_250_rhum_042.txt.gz
RH
25 26 23 28 24 15 17 14 16 8 5 3 3 2 2 2 2 2 1 2 1 1 1 1 1 1 2 4 6 6 6 8 9 10 10 11 9 9 12 16 20 82 86 89 90 100 100
26 25 26 30 22 15 22 18 14 8 5 3 3 2 2 2 2 2 2 2 1 1 1 1 2 2 2 3 6 8 7 8 10 12 10 11 10 8 10 17 20 72 91 86 100 88 100
28 28 27 33 25 17 20 25 14 7 4 3 2 2 2 2 2 2 2 2 2 1 1 1 2 2 2 2 5 8 7 8 11 12 11 11 11 9 9 14 20 27 100 78 100 94 100
30 31 30 30 25 18 26 26 14 7 5 4 2 2 2 2 2 2 2 2 2 1 1 1 1 2 3 3 4 6 8 9 12 11 11 10 11 10 9 11 18 24 90 77 100 100 100
31 30 34 27 25 26 28 26 16 7 6 4 3 2 2 2 2 2 2 2 2 2 1 1 1 2 3 3 3 4 7 9 11 12 12 10 11 10 9 10 15 21 70 100 100 97 100
31 31 36 30 25 31 30 30 20 8 8 5 3 2 2 2 2 2 3 2 2 2 2 2 2 2 2 3 4 5 9 10 10 13 13 11 11 11 10 10 13 21 70 100 100 99 100
31 32 34 26 28 39 31 33 30 14 12 6 4 3 2 3 3 3 3 3 3 2 2 2 2 2 2 3 3 6 10 12 13 11 13 14 10 13 12 11 13 20 78 85 100 100 98
30 34 32 24 27 41 38 36 30 21 15 8 5 4 2 3 3 3 4 3 3 3 2 2 2 2 2 2 3 4 7 10 12 14 14 11 12 13 13 11 12 15 24 99 92 100 98
30 37 32 27 28 34 32 38 34 35 21 17 7 5 3 3 3 3 4 4 3 3 3 2 3 2 2 2 3 4 5 9 12 15 13 12 15 14 13 11 11 14 23 30 81 100 98
31 40 31 28 28 42 37 42 32 34 31 23 10 5 3 3 4 3 4 4 4 4 4 3 3 3 3 3 3 4 4 8 10 14 12 9 14 14 14 13 11 13 18 25 37 98 100
32 40 31 31 34 44 41 36 36 39 32 22 14 7 4 3 4 4 4 4 4 4 5 4 3 4 4 4 4 4 5 7 8 13 16 16 16 17 14 14 12 12 14 25 30 54 100
34 34 31 30 39 47 39 36 39 44 37 26 18 8 5 4 4 4 4 4 5 4 4 6 5 3 5 6 6 6 5 7 10 13 17 20 15 16 15 14 15 12 12 15 28 44 65
40 33 33 25 40 45 38 37 37 41 47 28 18 11 5 5 4 4 4 4 5 5 4 5 7 6 4 6 7 7 8 8 11 14 18 19 14 14 16 17 17 14 13 13 15 24 48
41 38 33 28 41 43 40 35 33 41 50 41 20 12 6 5 4 4 4 4 5 6 5 6 7 8 6 6 9 11 10 9 13 17 18 17 18 17 16 18 19 18 15 12 12 14 27
47 41 37 30 40 45 39 32 32 45 46 48 22 13 8 5 5 4 5 4 5 6 6 6 8 12 10 8 9 14 17 13 16 18 19 19 21 20 20 20 18 20 19 18 15 14 15
49 36 40 30 36 43 40 32 33 40 44 48 32 13 10 5 5 5 5 4 4 5 6 6 8 10 15 12 11 13 16 24 23 21 23 23 28 23 21 22 19 17 19 20 19 18 15
51 36 38 30 34 39 40 34 29 42 41 48 39 25 17 8 5 4 5 4 4 5 6 6 7 9 18 17 15 16 16 20 28 32 34 31 29 26 26 25 23 19 17 19 19 20 21
44 37 36 28 35 39 35 33 30 34 42 44 40 25 21 15 6 4 5 5 4 5 6 7 7 8 10 23 20 17 19 22 25 24 29 32 32 33 34 31 27 26 22 19 17 18 21
45 36 35 31 36 39 32 28 28 34 33 44 52 28 22 19 8 5 5 5 5 5 6 7 7 7 9 12 29 29 21 21 22 24 31 34 35 36 34 31 29 27 26 21 17 16 16
42 43 34 38 35 37 29 24 27 32 32 41 48 35 32 25 13 4 4 5 5 5 6 7 8 8 10 11 17 34 44 32 24 26 26 26 28 32 32 30 26 24 22 18 16 17 16
49 40 38 39 39 32 31 23 28 25 31 41 44 36 28 23 16 5 5 5 5 5 6 7 8 9 10 12 14 17 28 50 48 31 30 31 31 29 32 31 31 28 25 22 20 18 18
46 43 48 36 32 31 30 24 24 25 31 43 39 32 27 14 19 6 4 5 5 5 5 7 9 9 10 11 13 16 23 33 49 53 39 34 28 34 40 43 36 30 28 27 23 18 18
44 44 41 35 34 34 31 26 21 21 29 36 32 37 22 14 13 8 4 4 5 5 5 7 9 9 10 11 15 16 19 26 30 46 56 51 32 30 30 32 32 39 26 26 23 24 24
46 47 42 33 34 40 28 21 21 22 29 32 35 28 21 13 11 10 4 4 4 5 6 7 9 10 11 11 13 16 18 21 27 40 52 63 61 45 35 33 31 31 31 30 28 27 30
47 43 41 34 41 41 26 21 22 28 27 27 37 27 21 18 9 10 5 4 4 5 6 6 9 12 12 13 12 15 17 18 19 26 38 50 57 68 61 41 30 29 33 39 28 28 29
45 44 37 37 40 34 27 24 23 21 22 28 34 29 19 16 13 11 5 4 5 5 6 6 9 11 13 13 14 16 19 21 20 24 31 50 56 59 67 62 46 35 35 34 36 36 32
49 50 44 44 45 41 37 31 25 23 22 25 25 28 18 19 14 11 6 4 4 5 6 7 8 12 12 12 13 16 19 22 21 24 25 30 52 60 64 60 64 59 39 32 33 37 42
53 58 50 50 50 40 44 37 32 29 25 20 22 22 15 18 18 12 6 4 4 5 6 7 9 10 14 15 15 16 19 21 21 23 24 25 32 52 61 60 73 67 56 44 50 54 60
59 63 55 47 44 37 41 39 34 32 24 18 20 21 19 19 17 10 6 5 5 5 7 8 9 11 13 16 19 20 25 24 26 29 29 27 26 35 50 64 71 76 72 68 56 62 67

GFSGBSN_250_rhum_045.txt.gz
RH
96 68 47 32 23 24 23 19 14 14 11 6 4 2 2 2 2 2 2 2 2 2 1 1 2 2 2 2 4 6 6 6 7 7 8 10 9 11 13 13 13 17 17 37 82 64 100
100 82 51 36 26 30 23 20 17 21 11 8 4 2 2 2 2 2 2 2 2 2 1 2 1 2 2 2 2 5 7 7 8 9 8 10 10 12 14 13 14 17 18 24 80 80 100
100 86 60 41 27 26 24 22 20 24 13 8 5 3 2 2 2 2 2 2 2 2 2 2 1 1 2 3 3 5 7 7 9 9 10 10 12 12 15 14 13 15 20 18 81 82 100
100 94 72 52 30 26 26 25 24 27 22 9 6 3 2 2 2 2 2 2 2 2 2 2 1 1 2 2 3 4 7 9 9 10 12 11 11 12 14 15 13 14 19 18 63 94 96
97 99 75 62 37 28 25 23 24 32 28 11 6 3 3 2 2 2 2 2 2 3 2 2 1 2 2 2 3 3 5 11 12 13 15 13 11 12 13 15 13 12 17 18 38 97 95
94 100 81 66 52 28 26 22 28 30 37 13 6 4 3 3 2 2 2 3 2 3 2 2 2 2 2 2 3 3 7 14 16 16 18 11 10 12 13 14 14 14 17 21 30 86 95
81 98 95 73 55 29 29 21 29 33 38 21 7 5 4 3 3 3 2 3 3 3 2 2 2 2 2 3 4 3 6 13 17 14 12 10 10 13 15 16 15 14 16 29 26 51 62
92 98 91 78 55 34 26 24 27 37 40 29 9 5 5 3 3 3 3 3 3 3 3 3 3 2 2 3 4 4 5 9 13 14 12 10 13 15 15 17 16 14 15 19 28 48 44
99 96 88 73 55 39 27 23 33 42 38 36 15 6 6 4 3 3 3 3 3 3 3 4 3 2 2 3 4 4 5 9 12 15 11 9 14 15 16 17 16 15 14 17 24 32 74
87 99 80 80 60 44 30 24 32 43 34 43 23 8 8 4 4 3 3 3 4 4 3 4 3 3 2 3 4 4 5 7 10 14 15 10 15 15 18 19 18 16 14 15 19 30 96
77 86 80 83 61 53 34 26 31 39 36 44 30 10 11 4 5 4 3 3 3 4 4 4 5 3 4 3 4 4 5 8 7 15 14 12 12 16 18 19 18 17 14 15 18 26 47
76 70 83 88 58 52 34 27 32 37 37 40 36 15 12 9 6 4 4 4 3 4 4 4 5 4 4 4 5 5 6 7 7 14 17 15 12 15 16 18 20 17 16 14 16 18 34
75 70 88 86 60 52 34 25 30 33 35 36 39 22 15 14 6 5 4 4 4 4 5 5 5 6 5 5 6 6 7 8 7 10 13 14 16 15 18 21 19 20 18 15 14 16 21
76 79 89 74 60 53 30 23 28 34 34 36 41 39 13 16 10 7 5 4 4 4 5 5 5 7 7 6 6 7 7 7 7 10 19 23 22 20 18 20 26 24 23 18 15 15 19
76 76 93 75 63 56 30 25 26 32 31 33 39 52 19 18 20 8 5 5 4 4 5 6 6 6 8 8 6 6 9 10 9 11 20 22 25 23 20 21 21 24 22 21 17 15 15
76 83 85 74 68 55 31 26 29 32 31 34 38 54 42 16 21 12 6 4 5 4 5 6 7 7 9 11 9 8 8 14 13 14 20 23 22 22 27 25 22 21 26 24 21 18 16
74 80 81 76 66 53 32 28 30 32 32 35 38 49 59 27 26 14 8 4 4 5 5 6 8 8 9 15 14 12 12 14 23 24 26 28 25 25 28 31 30 29 25 26 27 23 21
86 83 84 76 68 48 33 32 30 27 29 30 33 39 60 38 22 21 10 4 4 5 5 5 8 8 10 17 22 18 16 18 20 24 24 23 24 28 31 34 34 31 30 22 21 26 27
80 92 86 70 72 51 33 31 28 27 26 24 26 37 64 59 17 14 9 5 3 4 5 5 6 8 9 11 23 29 20 22 23 26 28 29 32 27 31 28 28 26 24 22 21 22 24
96 91 79 68 68 49 34 31 27 24 23 23 24 36 57 66 24 13 10 5 3 4 5 6 6 8 9 10 14 24 38 28 26 26 27 27 26 26 22 26 20 18 18 19 20 21 20
99 88 79 71 66 45 35 30 28 20 20 22 20 30 46 60 37 10 9 5 4 4 4 6 6 8 10 10 12 16 23 41 40 32 34 34 31 28 29 27 21 20 22 23 22 19 19
97 96 69 72 59 44 37 28 26 21 22 20 18 28 40 47 52 10 9 6 4 4 4 6 7 8 10 11 12 14 19 26 43 52 42 32 32 39 41 38 43 40 34 32 26 21 20
99 89 68 68 58 42 36 28 28 23 21 19 17 29 35 40 46 18 8 7 4 4 4 5 6 8 10 12 14 15 19 22 26 37 54 60 48 36 36 31 34 49 35 37 32 28 23
94 81 67 66 51 45 37 38 30 26 21 20 22 30 35 36 35 28 8 8 4 4 4 5 7 8 10 13 14 16 17 20 24 28 40 51 52 63 48 44 51 39 33 34 31 27 28
88 72 71 64 49 42 44 50 40 36 23 23 22 32 29 36 36 32 11 7 4 4 4 5 7 9 9 12 13 14 15 17 20 21 27 42 52 53 63 63 54 44 39 40 41 31 30
74 73 71 55 52 48 55 54 50 40 28 25 28 32 30 37 36 32 14 8 4 4 4 6 6 9 10 11 13 15 18 21 22 23 26 30 40 53 52 66 72 60 55 46 47 34 37
82 74 59 48 47 58 66 59 48 34 30 30 31 30 25 28 37 36 18 10 5 4 5 6 7 9 11 12 14 15 16 19 22 25 25 26 27 34 46 47 55 70 73 65 54 46 48
80 68 63 58 61 66 66 57 49 39 38 33 31 26 24 23 35 36 26 12 6 5 6 6 8 9 12 13 14 15 17 18 23 26 27 24 25 30 36 48 51 52 64 74 71 52 42
73 64 62 68 67 64 65 56 56 46 43 35 33 30 24 31 28 30 24 15 8 6 6 8 8 10 12 14 16 17 20 20 26 30 37 37 33 31 31 36 49 57 59 63 77 72 50

GFSGBSN_250_rhum_048.txt.gz
RH
70 70 64 79 70 67 54 34 24 21 21 22 10 6 5 3 2 2 2 2 2 2 2 1 1 1 1 2 2 4 4 5 5 6 8 8 8 12 14 16 15 14 14 13 16 27 22
73 70 65 72 76 71 56 41 27 19 23 25 17 8 5 4 2 2 2 2 2 2 2 2 1 1 1 2 2 3 5 6 6 7 7 8 8 11 16 17 16 16 16 14 16 34 24
83 70 66 71 78 80 60 44 40 18 27 27 24 8 6 4 2 2 2 2 2 2 2 2 1 1 1 1 2 3 5 7 6 8 9 9 9 10 16 17 17 17 15 16 17 25 18
86 78 65 66 79 83 64 44 31 18 23 30 30 12 6 4 3 2 2 2 2 2 2 2 2 1 1 2 2 2 3 8 8 7 10 9 9 10 14 16 15 16 16 16 18 20 20
87 81 66 65 69 76 60 48 36 24 23 31 30 19 7 5 4 2 2 2 2 2 3 2 2 2 2 2 2 3 4 7 9 10 11 11 10 11 14 14 13 14 16 14 16 18 47
82 84 67 77 80 79 58 57 42 27 22 27 29 29 11 6 4 2 3 2 2 2 3 3 2 2 2 2 2 3 4 5 9 14 12 12 10 11 13 15 16 19 20 20 17 19 27
77 85 65 70 81 75 63 50 39 28 23 31 33 36 16 6 5 3 3 3 2 2 3 3 2 2 2 2 3 4 4 4 10 15 14 12 10 11 16 17 16 20 21 22 20 18 19
76 81 64 76 76 68 63 49 45 30 26 30 34 37 25 6 5 3 2 3 3 2 2 3 3 3 2 2 3 4 4 4 11 18 16 12 9 12 13 18 18 20 20 20 19 18 19
75 83 73 71 78 73 62 53 41 33 29 30 32 38 33 9 5 4 2 3 3 3 2 3 4 3 2 2 3 4 4 4 8 15 15 13 12 14 13 18 22 19 20 21 21 17 17
81 77 79 75 72 75 66 60 44 37 29 35 33 35 32 21 5 4 3 2 3 3 3 3 4 4 3 2 3 5 5 4 5 9 12 13 12 11 14 18 20 19 19 20 19 17 16
80 83 87 86 74 79 70 64 47 42 28 36 33 29 31 26 9 4 4 3 3 3 3 3 4 4 4 3 3 4 5 5 8 9 11 13 14 13 15 18 20 20 18 20 21 18 17
98 82 97 88 83 81 68 65 55 42 30 32 35 31 31 35 12 4 4 2 3 3 3 2 4 5 5 4 4 4 4 4 6 7 8 13 16 16 15 18 20 19 19 20 21 20 16
96 97 100 91 82 79 72 66 60 39 28 32 36 32 31 42 20 6 5 3 3 4 3 3 3 4 6 5 5 5 5 5 8 9 9 10 17 19 18 16 19 22 22 21 21 21 18
95 93 97 99 83 76 77 69 61 40 30 32 39 30 39 46 26 8 5 4 3 4 4 4 4 4 5 6 5 5 6 6 9 10 10 14 18 21 23 18 23 26 26 24 25 24 23
94 94 100 97 77 73 80 75 62 41 35 35 35 29 34 44 30 10 5 5 3 3 4 4 4 5 5 7 7 7 7 7 9 9 21 22 27 27 25 22 24 26 25 24 26 26 24
84 82 99 100 89 76 79 78 58 44 34 35 30 28 37 41 40 17 6 6 3 3 4 4 4 5 6 7 9 8 8 9 10 13 23 30 32 33 33 28 25 28 33 27 27 28 26
93 78 96 97 88 79 80 75 54 50 38 38 32 31 39 40 44 36 7 5 4 3 3 5 5 5 6 6 9 10 10 11 12 15 20 28 33 35 33 32 29 26 28 30 32 35 30
90 82 99 97 87 85 77 76 55 51 39 37 29 30 39 32 39 39 10 5 5 3 3 4 6 6 7 8 8 12 12 10 14 16 19 24 27 29 35 36 36 34 29 30 32 34 36
78 98 100 100 95 88 72 74 62 53 41 34 33 27 36 36 42 44 24 5 6 3 3 4 5 7 8 9 10 16 14 15 14 15 18 23 28 30 38 38 43 43 47 33 30 28 32
97 95 96 100 99 78 81 74 69 56 44 32 32 25 29 39 48 44 32 7 6 4 3 4 5 7 9 10 11 13 22 20 19 19 18 20 18 22 23 25 25 32 32 29 23 24 30
100 100 100 100 95 80 83 73 72 55 46 34 35 26 27 42 44 43 43 12 6 4 3 3 4 6 9 11 13 14 28 37 32 24 25 23 24 25 24 23 22 21 22 23 23 23 18
100 100 100 100 88 89 85 82 78 56 46 37 38 28 29 33 42 49 49 22 6 6 3 3 4 6 9 11 12 15 16 22 51 54 40 35 34 36 42 41 34 31 30 29 28 20 20
100 100 98 100 93 98 92 90 81 58 56 46 40 31 33 30 44 52 57 39 8 6 4 3 4 6 8 10 13 16 19 19 21 32 56 61 48 38 34 30 34 45 29 31 26 24 23
100 100 93 98 100 95 94 94 69 64 61 49 43 32 35 33 44 48 58 51 12 6 4 3 4 6 7 12 13 14 17 21 24 26 26 30 54 62 55 49 50 41 36 40 43 39 30
100 99 96 100 100 97 100 92 69 68 60 59 48 37 40 36 45 46 59 47 19 8 5 4 4 6 7 10 14 15 15 17 19 25 28 32 34 50 55 59 66 59 52 48 53 32 38
100 93 99 100 100 100 98 77 75 73 61 58 56 44 36 35 46 42 48 58 29 11 6 4 4 6 8 9 13 16 18 20 21 23 29 29 28 28 38 57 61 53 63 65 64 52 50
99 96 100 96 100 98 86 78 77 73 64 52 53 47 40 33 45 46 43 48 41 17 9 6 5 6 8 10 12 15 19 20 23 25 30 33 33 29 34 40 43 60 62 66 69 63 58
92 92 97 100 89 90 84 76 66 72 60 55 54 43 43 32 39 42 45 48 60 33 10 6 5 6 8 10 12 15 18 19 22 26 32 34 33 33 31 28 33 52 57 64 67 70 66
100 100 100 80 81 74 77 76 87 76 62 46 54 38 40 36 33 38 45 38 56 36 21 9 7 7 8 10 11 14 17 20 23 25 28 29 30 31 34 30 32 41 52 66 67 73 78